Time,TemperatureF,DewpointF,PressureIn,WindDirection,WindDirectionDegrees,WindSpeedMPH,WindSpeedGustMPH,Humidity,HourlyPrecipIn,Conditions,Clouds,dailyrainin,SoftwareType,DateUTC
2013-01-09 08:10:00,17.4,15.2,30.39,ESE,118,0.0,0.0,91,0.00,,,0.00,Wunderground v.1.15,2013-01-09 13:10:00,
2013-01-09 08:20:00,17.5,15.1,30.38,ESE,118,0.0,0.0,90,0.00,,,0.00,Wunderground v.1.15,2013-01-09 13:20:00,
2013-01-09 08:30:00,18.4,16.0,30.38,ESE,118,0.0,0.0,90,0.00,,,0.00,Wunderground v.1.15,2013-01-09 13:30:00,
2013-01-09 08:35:00,18.6,16.2,30.38,ESE,118,0.0,0.0,90,0.00,,,0.00,Wunderground v.1.15,2013-01-09 13:35:00,
2013-01-09 08:40:00,19.1,16.7,30.38,ESE,119,0.0,0.0,90,0.00,,,0.00,Wunderground v.1.15,2013-01-09 13:40:00,
2013-01-09 08:45:00,19.3,16.8,30.37,ESE,118,0.0,0.0,90,0.00,,,0.00,Wunderground v.1.15,2013-01-09 13:45:00,
2013-01-09 08:50:00,19.7,17.0,30.37,ESE,118,0.0,0.0,89,0.00,,,0.00,Wunderground v.1.15,2013-01-09 13:50:00,
2013-01-09 09:00:00,20.8,17.8,30.37,ESE,122,0.0,0.0,88,0.00,,,0.00,Wunderground v.1.15,2013-01-09 14:00:00,
2013-01-09 09:05:00,21.4,18.1,30.37,ESE,117,0.0,0.0,87,0.00,,,0.00,Wunderground v.1.15,2013-01-09 14:05:00,
2013-01-09 09:10:00,21.8,18.3,30.37,ESE,113,0.0,0.0,86,0.00,,,0.00,Wunderground v.1.15,2013-01-09 14:10:00,
2013-01-09 09:15:00,21.9,17.8,30.37,ESE,113,0.0,0.0,84,0.00,,,0.00,Wunderground v.1.15,2013-01-09 14:15:00,
2013-01-09 09:20:00,22.2,18.4,30.37,ESE,122,0.0,0.0,85,0.00,,,0.00,Wunderground v.1.15,2013-01-09 14:20:00,
2013-01-09 09:25:00,22.8,18.7,30.36,ESE,121,0.0,0.0,84,0.00,,,0.00,Wunderground v.1.15,2013-01-09 14:25:00,
2013-01-09 09:35:00,23.6,19.2,30.36,ESE,122,0.0,2.0,83,0.00,,,0.00,Wunderground v.1.15,2013-01-09 14:35:00,
2013-01-09 09:40:00,24.0,19.3,30.35,SE,125,1.0,1.0,82,0.00,,,0.00,Wunderground v.1.15,2013-01-09 14:40:00,
2013-01-09 09:45:00,24.4,19.4,30.35,ESE,116,1.0,2.0,81,0.00,,,0.00,Wunderground v.1.15,2013-01-09 14:45:00,
2013-01-09 09:50:00,24.3,19.3,30.34,SE,141,1.0,1.0,81,0.00,,,0.00,Wunderground v.1.15,2013-01-09 14:50:00,
2013-01-09 10:00:00,24.6,19.6,30.33,SE,126,0.0,1.0,81,0.00,,,0.00,Wunderground v.1.15,2013-01-09 15:00:00,
2013-01-09 10:05:00,24.8,19.8,30.33,SSE,148,0.0,1.0,81,0.00,,,0.00,Wunderground v.1.15,2013-01-09 15:05:00,
2013-01-09 10:10:00,25.0,19.7,30.33,SSE,149,1.0,1.0,80,0.00,,,0.00,Wunderground v.1.15,2013-01-09 15:10:00,
2013-01-09 10:15:00,25.3,20.0,30.32,SE,135,0.0,1.0,80,0.00,,,0.00,Wunderground v.1.15,2013-01-09 15:15:00,
2013-01-09 10:20:00,25.5,20.2,30.32,North,10,0.0,0.0,80,0.00,,,0.00,Wunderground v.1.15,2013-01-09 15:20:00,
2013-01-09 10:30:00,26.1,20.5,30.31,South,172,1.0,1.0,79,0.00,,,0.00,Wunderground v.1.15,2013-01-09 15:30:00,
2013-01-09 10:35:00,26.5,20.9,30.31,SE,142,1.0,1.0,79,0.00,,,0.00,Wunderground v.1.15,2013-01-09 15:35:00,
2013-01-09 10:40:00,26.9,21.0,30.30,East,99,1.0,1.0,78,0.00,,,0.00,Wunderground v.1.15,2013-01-09 15:40:00,
2013-01-09 10:45:00,27.4,21.4,30.30,NNW,345,1.0,1.0,78,0.00,,,0.00,Wunderground v.1.15,2013-01-09 15:45:00,
2013-01-09 10:50:00,28.0,21.7,30.30,SE,146,0.0,1.0,77,0.00,,,0.00,Wunderground v.1.15,2013-01-09 15:50:00,
2013-01-09 10:55:00,28.2,21.9,30.30,SE,134,0.0,2.0,77,0.00,,,0.00,Wunderground v.1.15,2013-01-09 15:55:00,
2013-01-09 11:00:00,28.3,21.7,30.29,ESE,118,1.0,1.0,76,0.00,,,0.00,Wunderground v.1.15,2013-01-09 16:00:00,
2013-01-09 11:10:00,28.9,22.6,30.27,SSE,167,1.0,1.0,77,0.00,,,0.00,Wunderground v.1.15,2013-01-09 16:10:00,
2013-01-09 11:15:00,29.4,22.8,30.27,NNW,345,2.0,2.0,76,0.00,,,0.00,Wunderground v.1.15,2013-01-09 16:15:00,
2013-01-09 11:20:00,30.0,23.4,30.26,SSE,148,1.0,1.0,76,0.00,,,0.00,Wunderground v.1.15,2013-01-09 16:20:00,
2013-01-09 11:25:00,30.3,23.3,30.26,WNW,295,0.0,1.0,75,0.00,,,0.00,Wunderground v.1.15,2013-01-09 16:25:00,
2013-01-09 11:30:00,30.8,23.5,30.25,ESE,113,1.0,1.0,74,0.00,,,0.00,Wunderground v.1.15,2013-01-09 16:30:00,
2013-01-09 11:40:00,31.1,23.8,30.23,ESE,110,0.0,0.0,74,0.00,,,0.00,Wunderground v.1.15,2013-01-09 16:40:00,
2013-01-09 11:45:00,31.4,24.1,30.23,SE,127,0.0,0.0,74,0.00,,,0.00,Wunderground v.1.15,2013-01-09 16:45:00,
2013-01-09 11:50:00,31.7,24.4,30.21,SE,125,0.0,0.0,74,0.00,,,0.00,Wunderground v.1.15,2013-01-09 16:50:00,
2013-01-09 12:00:00,32.3,24.9,30.22,NNW,347,0.0,0.0,74,0.00,,,0.00,Wunderground v.1.15,2013-01-09 17:00:00,
2013-01-09 12:05:00,32.7,25.3,30.21,SE,137,0.0,0.0,74,0.00,,,0.00,Wunderground v.1.15,2013-01-09 17:05:00,
2013-01-09 12:15:00,32.7,25.3,30.20,NE,34,0.0,1.0,74,0.00,,,0.00,Wunderground v.1.15,2013-01-09 17:15:00,
2013-01-09 12:20:00,32.8,25.4,30.19,North,360,1.0,1.0,74,0.00,,,0.00,Wunderground v.1.15,2013-01-09 17:20:00,
2013-01-09 12:30:00,33.2,26.1,30.18,NE,43,1.0,1.0,75,0.00,,,0.00,Wunderground v.1.15,2013-01-09 17:30:00,
2013-01-09 12:35:00,33.5,26.4,30.17,NE,47,0.0,1.0,75,0.00,,,0.00,Wunderground v.1.15,2013-01-09 17:35:00,
2013-01-09 12:45:00,33.7,26.9,30.16,ESE,123,0.0,1.0,76,0.00,,,0.00,Wunderground v.1.15,2013-01-09 17:45:00,
2013-01-09 12:50:00,33.7,26.9,30.16,ESE,123,0.0,0.0,76,0.00,,,0.00,Wunderground v.1.15,2013-01-09 17:50:00,
2013-01-09 13:00:00,33.7,26.9,30.14,ESE,118,0.0,0.0,76,0.00,,,0.00,Wunderground v.1.15,2013-01-09 18:00:00,
2013-01-09 13:05:00,33.8,27.0,30.14,NNE,30,0.0,0.0,76,0.00,,,0.00,Wunderground v.1.15,2013-01-09 18:05:00,
2013-01-09 13:10:00,33.7,26.6,30.13,NNE,30,0.0,0.0,75,0.00,,,0.00,Wunderground v.1.15,2013-01-09 18:10:00,
2013-01-09 13:20:00,33.3,26.2,30.09,SE,142,0.0,1.0,75,0.00,,,0.00,Wunderground v.1.15,2013-01-09 18:20:00,
2013-01-09 13:25:00,33.2,26.5,30.10,East,93,0.0,1.0,76,0.00,,,0.00,Wunderground v.1.15,2013-01-09 18:25:00,
2013-01-09 13:35:00,33.2,26.5,30.12,ESE,122,1.0,1.0,76,0.00,,,0.00,Wunderground v.1.15,2013-01-09 18:35:00,
2013-01-09 13:40:00,33.2,26.5,30.12,ESE,122,0.0,0.0,76,0.00,,,0.00,Wunderground v.1.15,2013-01-09 18:40:00,
2013-01-09 13:45:00,33.3,26.5,30.12,ESE,121,0.0,0.0,76,0.00,,,0.00,Wunderground v.1.15,2013-01-09 18:45:00,
2013-01-09 13:50:00,33.3,26.5,30.13,ESE,121,0.0,0.0,76,0.00,,,0.00,Wunderground v.1.15,2013-01-09 18:50:00,
2013-01-09 13:55:00,33.3,26.5,30.12,ESE,120,0.0,0.0,76,0.00,,,0.00,Wunderground v.1.15,2013-01-09 18:55:00,
2013-01-09 14:05:00,33.5,27.4,30.11,NNE,18,0.0,2.0,78,0.00,,,0.00,Wunderground v.1.15,2013-01-09 19:05:00,
2013-01-09 14:10:00,33.7,27.6,30.11,NE,46,1.0,2.0,78,0.00,,,0.00,Wunderground v.1.15,2013-01-09 19:10:00,
2013-01-09 14:15:00,33.8,27.7,30.10,ESE,115,1.0,2.0,78,0.00,,,0.00,Wunderground v.1.15,2013-01-09 19:15:00,
2013-01-09 14:20:00,33.9,27.4,30.10,WSW,250,1.0,1.0,77,0.00,,,0.00,Wunderground v.1.15,2013-01-09 19:20:00,
2013-01-09 14:25:00,33.8,27.7,30.09,ESE,103,1.0,1.0,78,0.00,,,0.00,Wunderground v.1.15,2013-01-09 19:25:00,
2013-01-09 14:30:00,33.6,27.5,30.08,NE,46,1.0,4.0,78,0.00,,,0.00,Wunderground v.1.15,2013-01-09 19:30:00,
2013-01-09 14:35:00,33.5,27.4,30.08,NE,54,1.0,4.0,78,0.00,,,0.00,Wunderground v.1.15,2013-01-09 19:35:00,
2013-01-09 14:45:00,33.3,27.5,30.07,North,8,2.0,2.0,79,0.00,,,0.00,Wunderground v.1.15,2013-01-09 19:45:00,
2013-01-09 14:50:00,33.2,27.4,30.07,NNE,20,1.0,1.0,79,0.00,,,0.00,Wunderground v.1.15,2013-01-09 19:50:00,
2013-01-09 15:00:00,33.1,27.3,30.07,NW,322,2.0,3.0,79,0.00,,,0.00,Wunderground v.1.15,2013-01-09 20:00:00,
2013-01-09 15:05:00,33.0,27.2,30.06,NNE,23,2.0,3.0,79,0.00,,,0.00,Wunderground v.1.15,2013-01-09 20:05:00,
2013-01-09 15:15:00,32.8,27.0,30.06,NNE,32,1.0,3.0,79,0.00,,,0.00,Wunderground v.1.15,2013-01-09 20:15:00,
2013-01-09 15:20:00,32.8,26.7,30.05,North,4,2.0,2.0,78,0.00,,,0.00,Wunderground v.1.15,2013-01-09 20:20:00,
2013-01-09 15:30:00,32.7,26.6,30.04,NNE,23,2.0,2.0,78,0.00,,,0.00,Wunderground v.1.15,2013-01-09 20:30:00,
2013-01-09 15:35:00,32.6,26.5,30.05,NNE,32,1.0,2.0,78,0.00,,,0.00,Wunderground v.1.15,2013-01-09 20:35:00,
2013-01-09 15:40:00,32.6,26.5,30.05,NNE,32,1.0,2.0,78,0.00,,,0.00,Wunderground v.1.15,2013-01-09 20:40:00,
2013-01-09 15:50:00,32.4,27.2,30.05,NE,40,1.0,3.0,81,0.00,,,0.00,Wunderground v.1.15,2013-01-09 20:50:00,
2013-01-09 16:00:00,31.6,28.5,30.03,ENE,67,0.0,1.0,88,0.00,,,0.00,Wunderground v.1.15,2013-01-09 21:00:00,
2013-01-09 16:05:00,31.0,28.1,30.02,ESE,113,0.0,1.0,89,0.00,,,0.00,Wunderground v.1.15,2013-01-09 21:05:00,
2013-01-09 16:15:00,30.5,28.2,30.00,NNE,30,1.0,2.0,91,0.00,,,0.00,Wunderground v.1.15,2013-01-09 21:15:00,
2013-01-09 16:20:00,30.4,28.1,30.00,ESE,113,1.0,1.0,91,0.00,,,0.00,Wunderground v.1.15,2013-01-09 21:20:00,
2013-01-09 16:25:00,30.4,27.8,30.00,SSE,159,1.0,1.0,90,0.00,,,0.00,Wunderground v.1.15,2013-01-09 21:25:00,
2013-01-09 16:35:00,30.2,27.6,29.99,NNE,30,0.0,2.0,90,0.00,,,0.00,Wunderground v.1.15,2013-01-09 21:35:00,
2013-01-09 16:40:00,30.1,27.3,29.98,NNW,337,1.0,1.0,89,0.00,,,0.00,Wunderground v.1.15,2013-01-09 21:40:00,
2013-01-09 16:50:00,30.2,27.1,29.97,NNE,31,1.0,1.0,88,0.00,,,0.00,Wunderground v.1.15,2013-01-09 21:50:00,
2013-01-09 17:00:00,30.4,27.0,29.97,ESE,111,1.0,1.0,87,0.00,,,0.00,Wunderground v.1.15,2013-01-09 22:00:00,
2013-01-09 17:05:00,30.4,27.0,29.96,NE,39,1.0,1.0,87,0.00,,,0.00,Wunderground v.1.15,2013-01-09 22:05:00,
2013-01-09 17:10:00,30.5,26.8,29.95,NE,46,1.0,1.0,86,0.00,,,0.00,Wunderground v.1.15,2013-01-09 22:10:00,
2013-01-09 17:20:00,30.6,26.3,29.94,NE,38,1.0,1.0,84,0.00,,,0.00,Wunderground v.1.15,2013-01-09 22:20:00,
2013-01-09 17:25:00,30.8,26.2,29.94,NE,49,1.0,1.0,83,0.00,,,0.00,Wunderground v.1.15,2013-01-09 22:25:00,
2013-01-09 17:35:00,30.9,26.3,29.94,South,176,1.0,1.0,83,0.00,,,0.00,Wunderground v.1.15,2013-01-09 22:35:00,
2013-01-09 17:40:00,30.9,26.1,29.94,NE,41,0.0,0.0,82,0.00,,,0.00,Wunderground v.1.15,2013-01-09 22:40:00,
2013-01-09 17:50:00,31.0,26.4,29.93,ESE,103,0.0,0.0,83,0.00,,,0.00,Wunderground v.1.15,2013-01-09 22:50:00,
2013-01-09 17:55:00,30.9,26.1,29.93,ENE,70,0.0,0.0,82,0.00,,,0.00,Wunderground v.1.15,2013-01-09 22:55:00,
2013-01-09 18:05:00,30.8,26.2,29.92,ESE,109,0.0,0.0,83,0.00,,,0.00,Wunderground v.1.15,2013-01-09 23:05:00,
2013-01-09 18:10:00,30.8,26.2,29.92,ESE,107,0.0,0.0,83,0.00,,,0.00,Wunderground v.1.15,2013-01-09 23:10:00,
2013-01-09 18:20:00,30.9,25.8,29.92,NNE,23,1.0,1.0,81,0.00,,,0.00,Wunderground v.1.15,2013-01-09 23:20:00,
2013-01-09 18:25:00,31.0,25.9,29.92,North,9,1.0,1.0,81,0.00,,,0.00,Wunderground v.1.15,2013-01-09 23:25:00,
2013-01-09 18:35:00,31.0,25.9,29.91,SE,134,0.0,1.0,81,0.00,,,0.00,Wunderground v.1.15,2013-01-09 23:35:00,
2013-01-09 18:40:00,31.0,25.9,29.90,North,355,0.0,1.0,81,0.00,,,0.00,Wunderground v.1.15,2013-01-09 23:40:00,
2013-01-09 18:50:00,30.9,25.8,29.90,ENE,57,1.0,1.0,81,0.00,,,0.00,Wunderground v.1.15,2013-01-09 23:50:00,
2013-01-09 18:55:00,30.9,25.8,29.89,NE,49,0.0,1.0,81,0.00,,,0.00,Wunderground v.1.15,2013-01-09 23:55:00,
2013-01-09 19:00:00,30.8,26.0,29.89,ESE,111,0.0,0.0,82,0.00,,,0.00,Wunderground v.1.15,2013-01-10 00:00:00,
2013-01-09 19:10:00,30.2,25.9,29.90,ESE,112,0.0,0.0,84,0.00,,,0.00,Wunderground v.1.15,2013-01-10 00:10:00,
2013-01-09 19:15:00,29.8,26.1,29.90,NNW,327,0.0,0.0,86,0.00,,,0.00,Wunderground v.1.15,2013-01-10 00:15:00,
2013-01-09 19:25:00,29.6,26.2,29.89,SE,125,0.0,0.0,87,0.00,,,0.00,Wunderground v.1.15,2013-01-10 00:25:00,
2013-01-09 19:35:00,29.3,25.9,29.89,NE,46,0.0,1.0,87,0.00,,,0.00,Wunderground v.1.15,2013-01-10 00:35:00,
2013-01-09 19:40:00,29.0,25.6,29.89,North,3,0.0,0.0,87,0.00,,,0.00,Wunderground v.1.15,2013-01-10 00:40:00,
2013-01-09 19:45:00,29.0,25.6,29.88,North,9,0.0,0.0,87,0.00,,,0.00,Wunderground v.1.15,2013-01-10 00:45:00,
2013-01-09 19:55:00,29.1,25.7,29.88,NW,321,0.0,0.0,87,0.00,,,0.00,Wunderground v.1.15,2013-01-10 00:55:00,
2013-01-09 20:00:00,29.1,25.7,29.88,NW,321,0.0,0.0,87,0.00,,,0.00,Wunderground v.1.15,2013-01-10 01:00:00,
2013-01-09 20:10:00,29.1,25.4,29.88,NW,320,0.0,0.0,86,0.00,,,0.00,Wunderground v.1.15,2013-01-10 01:10:00,
2013-01-09 20:15:00,29.1,25.7,29.87,NW,320,0.0,0.0,87,0.00,,,0.00,Wunderground v.1.15,2013-01-10 01:15:00,
2013-01-09 20:25:00,28.9,25.8,29.87,NW,320,0.0,0.0,88,0.00,,,0.00,Wunderground v.1.15,2013-01-10 01:25:00,
2013-01-09 20:30:00,28.8,26.0,29.86,NW,320,0.0,0.0,89,0.00,,,0.00,Wunderground v.1.15,2013-01-10 01:30:00,
2013-01-09 20:40:00,28.8,25.7,29.86,NW,321,0.0,0.0,88,0.00,,,0.00,Wunderground v.1.15,2013-01-10 01:40:00,
2013-01-09 20:45:00,28.8,25.7,29.86,NW,321,0.0,0.0,88,0.00,,,0.00,Wunderground v.1.15,2013-01-10 01:45:00,
2013-01-09 20:50:00,28.7,25.9,29.86,NW,322,0.0,0.0,89,0.00,,,0.00,Wunderground v.1.15,2013-01-10 01:50:00,
2013-01-09 21:00:00,28.5,25.9,29.86,SE,133,1.0,1.0,90,0.00,,,0.00,Wunderground v.1.15,2013-01-10 02:00:00,
2013-01-09 21:05:00,28.4,25.8,29.86,SSE,162,1.0,1.0,90,0.00,,,0.00,Wunderground v.1.15,2013-01-10 02:05:00,
2013-01-09 21:15:00,29.4,27.1,29.86,ESE,115,1.0,5.0,91,0.00,,,0.00,Wunderground v.1.15,2013-01-10 02:15:00,
2013-01-09 21:20:00,30.6,27.5,29.86,WSW,238,2.0,2.0,88,0.00,,,0.00,Wunderground v.1.15,2013-01-10 02:20:00,
2013-01-09 21:30:00,30.9,27.8,29.86,South,173,1.0,3.0,88,0.00,,,0.00,Wunderground v.1.15,2013-01-10 02:30:00,
2013-01-09 21:35:00,31.8,28.4,29.85,SE,142,3.0,3.0,87,0.00,,,0.00,Wunderground v.1.15,2013-01-10 02:35:00,
2013-01-09 21:45:00,33.2,29.5,29.86,East,93,2.0,2.0,86,0.00,,,0.00,Wunderground v.1.15,2013-01-10 02:45:00,
2013-01-09 21:50:00,34.3,30.3,29.86,East,98,2.0,4.0,85,0.00,,,0.00,Wunderground v.1.15,2013-01-10 02:50:00,
2013-01-09 22:00:00,36.3,31.3,29.87,West,262,2.0,4.0,82,0.00,,,0.00,Wunderground v.1.15,2013-01-10 03:00:00,
2013-01-09 22:05:00,37.1,30.9,29.86,West,274,3.0,4.0,78,0.00,,,0.00,Wunderground v.1.15,2013-01-10 03:05:00,
2013-01-09 22:15:00,38.0,29.4,29.86,NE,36,4.0,4.0,71,0.00,,,0.00,Wunderground v.1.15,2013-01-10 03:15:00,
2013-01-09 22:20:00,38.6,28.9,29.86,SSE,165,4.0,4.0,68,0.00,,,0.00,Wunderground v.1.15,2013-01-10 03:20:00,
2013-01-09 22:30:00,38.3,29.4,29.86,SE,138,2.0,3.0,70,0.00,,,0.00,Wunderground v.1.15,2013-01-10 03:30:00,